User: anonymous   Login
Location: Unspecified
(0.0000°N, 0.0000°E)
Time: 18:32:08
(UTC+00:00)
Language:

SRMSAT - Orbit

View from above orbital plane
View from above orbital plane
View from above satellite
View from above satellite

Ground track
Ground track

The orbit data is extracted from the following two-line orbital elements,

1 37841U 11058D   19230.62258071 +.00000287 +00000-0 +12436-4 0  9991
2 37841 019.9734 023.3197 0011840 145.8922 298.3456 14.10636414405217
Epoch (UTC): 18 August 2019 14:56:30
Eccentricity: 0.0011840
inclination: 19.9734°
perigee height: 848 km
apogee height: 866 km
right ascension of ascending node: 23.3197°
argument of perigee: 145.8922°
revolutions per day: 14.10636414
mean anomaly at epoch: 298.3456°
orbit number at epoch: 40521

The dashed part of the orbit path shows where the satellite is in the earth's shadow,  

DLR